TimeGMT,TemperatureF,Dew PointF,Humidity,Sea Level PressureIn,VisibilityMPH,Wind Direction,Wind SpeedMPH,Gust SpeedMPH,PrecipitationIn,Events,Conditions,WindDirDegrees,DateUTC
12:50 AM,39.2,37.4,93,29.53,6.2,West,5.8,-,N/A,,Mostly Cloudy,260,2012-11-11 00:50:00
1:50 AM,39.2,37.4,93,29.53,6.2,West,8.1,-,N/A,,Mostly Cloudy,270,2012-11-11 01:50:00
2:50 AM,38,36,92,29.58,6,WNW,3.5,,,,Scattered Clouds,300,2012-11-11 02:50:00
2:50 AM,37.4,37.4,100,29.56,6.2,WNW,3.5,-,N/A,,Partly Cloudy,300,2012-11-11 02:50:00
3:50 AM,35.6,33.8,93,29.59,-9999.0,SW,3.5,-,N/A,,Partly Cloudy,220,2012-11-11 03:50:00
4:50 AM,35.6,35.6,100,29.62,3.1,WSW,3.5,-,N/A,,Mist,250,2012-11-11 04:50:00
5:50 AM,37,36,95,29.68,6,WSW,4.6,,,,Mist,240,2012-11-11 05:50:00
6:50 AM,35.6,35.6,100,29.68,6.2,WSW,5.8,-,N/A,,Unknown,250,2012-11-11 06:50:00
7:50 AM,33.8,33.8,100,29.71,-9999.0,SSW,2.3,-,N/A,,Mist,200,2012-11-11 07:50:00
8:50 AM,40,39,94,29.75,13,West,3.5,,,,,260,2012-11-11 08:50:00
8:50 AM,39.2,39.2,100,29.74,6.2,West,3.5,-,N/A,,Unknown,260,2012-11-11 08:50:00
9:50 AM,44.6,39.2,81,29.80,6.2,West,4.6,-,N/A,,Unknown,270,2012-11-11 09:50:00
10:50 AM,48.2,39.2,71,29.80,6.2,WNW,12.7,-,N/A,,Unknown,290,2012-11-11 10:50:00
11:50 AM,49,38,57,29.83,25,WNW,10.4,,,,,300,2012-11-11 11:50:00
11:50 AM,48.2,39.2,71,29.80,6.2,WNW,10.4,-,N/A,,Unknown,300,2012-11-11 11:50:00
12:50 PM,50.0,39.2,66,29.83,6.2,WNW,10.4,-,N/A,,Unknown,300,2012-11-11 12:50:00
1:50 PM,50.0,39.2,66,29.86,6.2,WNW,10.4,-,N/A,,Unknown,300,2012-11-11 13:50:00
2:50 PM,49,38,55,29.89,25,WNW,10.4,,,,Scattered Clouds,290,2012-11-11 14:50:00
3:50 PM,48.2,39.2,71,29.89,6.2,West,6.9,-,N/A,,Mostly Cloudy,260,2012-11-11 15:50:00
4:50 PM,46.4,39.2,76,29.92,6.2,West,5.8,-,N/A,,Mostly Cloudy,270,2012-11-11 16:50:00
5:50 PM,44,39,76,29.94,16,SW,8.1,,,,Mostly Cloudy,230,2012-11-11 17:50:00
5:50 PM,44.6,39.2,81,29.92,6.2,SW,8.1,-,N/A,,Mostly Cloudy,230,2012-11-11 17:50:00
6:50 PM,42.8,37.4,81,29.95,6.2,West,6.9,-,N/A,,Mostly Cloudy,260,2012-11-11 18:50:00
7:50 PM,42.8,37.4,81,29.98,6.2,WSW,3.5,-,N/A,,Mostly Cloudy,250,2012-11-11 19:50:00
8:50 PM,44,38,73,30.00,14,West,8.1,,,,Overcast,260,2012-11-11 20:50:00
8:50 PM,44.6,39.2,81,29.98,6.2,West,8.1,-,N/A,,Overcast,260,2012-11-11 20:50:00
9:50 PM,42.8,39.2,87,30.01,6.2,WSW,5.8,-,N/A,,Overcast,250,2012-11-11 21:50:00
10:50 PM,41.0,39.2,93,30.01,6.2,SSW,5.8,-,N/A,,Overcast,200,2012-11-11 22:50:00
11:50 PM,40,38,90,30.03,11,SSW,5.8,,,,Scattered Clouds,210,2012-11-11 23:50:00
11:50 PM,41.0,37.4,87,30.01,6.2,SSW,5.8,-,N/A,,Partly Cloudy,210,2012-11-11 23:50:00